User: anonymous   Login
Location: Unspecified
(0.0000°N, 0.0000°E)
Time: 06:09:08
(UTC+00:00)
Language:

UNISAT 3 - Orbit

View from above orbital plane
View from above orbital plane
View from above satellite
View from above satellite

Ground track
Ground track

The orbit data is extracted from the following two-line orbital elements,

1 28373U 04025H   17296.76060562  .00000093  00000-0  38298-4 0  9997
2 28373  98.3473 236.5462 0068892 178.7546 181.3830 14.45432045702474
Epoch (UTC): 23 October 2017 18:15:16
Eccentricity: 0.0068892
inclination: 98.3473°
perigee height: 691 km
apogee height: 789 km
right ascension of ascending node: 236.5462°
argument of perigee: 178.7546°
revolutions per day: 14.45432045
mean anomaly at epoch: 181.3830°
orbit number at epoch: 70247

The dashed part of the orbit path shows where the satellite is in the earth's shadow,  

DLR